Tamkin Huseynov

Olheiro-Chefe - Qarabag
22 Fev 2028
Terça-feira
Processo

Personalidade

Adaptabilidade (6) Ambição (15) Controvérsia (7) Lealdade (17) Pressão (9) Profissionalismo (6) Espírito Esportivo (9) Temperamento (14)

Perfil

Estilo de Treinamento Democrático
Licença Continental C
Determinação 9
Gestão de Pessoas 5
Motivação 11
Disciplina 9
Satisfação no Trabalho
100%
Fadiga
0%
Função Olheiro-Chefe
Salário 65.8K p/s
Contrato 14.03.2030

Desempenho

Comportamento Bom
Eficácia do Treinamento
26%
Desenvolvimento do Jogador
55%
Prevenção de Lesões
25%
Implementação Tática
30%

Eventos Recentes

Participou de uma reunião de recrutamento agora
Recomendou um alvo de transferência agora
Recomendou um alvo de transferência agora
Recomendou um alvo de transferência agora
Recomendou um alvo de transferência agora
Recomendou um alvo de transferência agora
Avaliou um jogador 7d atrás
Avaliou um jogador 7d atrás

Monitorando agora

338
Jogador Clube Status Habilidade Confiança Observado Última observação Último voto
Luciano Gondou CSKA Moscow Ativo 144 / 127 40% 5 20.02.2028 -
Jesús Ricardo Angulo Toluca Ativo 143 / 146 40% 1 20.02.2028 -
Lewis Morgan SuperSport United Ativo 129 / 140 40% 1 20.02.2028 -
Abu Kamara Portsmouth Ativo 130 / 124 40% 1 19.02.2028 -
Toma Bašić Venezia Ativo 144 / 135 40% 1 19.02.2028 -
Joseph Paintsil LA Galaxy Ativo 128 / 115 40% 1 19.02.2028 -
Alex Palmer Norwich City Ativo 127 / 135 40% 1 19.02.2028 -
Joe Whitworth Stockport County Ativo 123 / 118 40% 1 19.02.2028 -
Alexandr Maximenko Rubin Ativo 120 / 118 40% 1 19.02.2028 -
Carlos Fernández Oviedo Ativo 130 / 136 40% 26 17.02.2028 -
Maurice Malone Minnesota United FC Ativo 117 / 120 40% 1 17.02.2028 -
Miroslav Bogosavac Akhmat Grozny Ativo 112 / 112 40% 1 17.02.2028 -
Robby McCrorie NK Varazdin Ativo 129 / 128 40% 1 17.02.2028 -
Rémy Descamps RC Lens Ativo 126 / 122 40% 1 17.02.2028 -
Roger Brugué Levante Ativo 135 / 135 40% 17 14.02.2028 -
Pavel Bucha FC Cincinnati Ativo 130 / 120 40% 3 14.02.2028 -
Josh Murphy Portsmouth Ativo 124 / 126 40% 1 14.02.2028 -
Daniel Podence Al-Shabab Ativo 140 / 129 40% 2 12.02.2028 -
Mohau Nkota Al-Ettifaq Ativo 127 / 125 40% 1 12.02.2028 -
Makoto Mitsuta Gamba Osaka Ativo 134 / 116 40% 1 11.02.2028 -
Gaëtan Coucke Sampdoria Ativo 128 / 129 40% 3 10.02.2028 -
Simone Mazzocchi Cosenza Ativo 124 / 112 40% 1 10.02.2028 -
Diego Rosa APOEL Ativo 130 / 126 40% 1 10.02.2028 -
Makan Aïko Tondela Ativo 124 / 128 40% 1 10.02.2028 -
Matt Freese New York City Ativo 129 / 149 40% 1 10.02.2028 -
Cesare Galeotti Trapani Ativo 123 / 110 40% 1 10.02.2028 -
Will Dennis Milton Keynes Dons Ativo 116 / 122 40% 1 09.02.2028 -
Simone Ghidotti Parma Ativo 130 / 131 40% 1 09.02.2028 -
Timur Magomedov Dinamo Makhachkala Ativo 118 / 121 40% 1 09.02.2028 -
Hany Mukhtar Spezia Ativo 149 / 137 40% 2 07.02.2028 -
Brenner Santa Clara Ativo 117 / 121 40% 1 07.02.2028 -
Sam Szmodics Ipswich Town Ativo 132 / 132 40% 1 07.02.2028 -
David Ayala Inter Miami CF Ativo 126 / 127 40% 3 06.02.2028 -
Roman Vantukh Rukh Ativo 116 / 108 40% 1 06.02.2028 -
Dmitry Pestryakov Dinamo Moscow Ativo 107 / 115 40% 4 05.02.2028 -
Nikita Kakkoev Nizhniy Novgorod Ativo 114 / 117 40% 1 05.02.2028 -
Rasmus Wikström IF Elfsborg Ativo 120 / 131 40% 1 05.02.2028 -
Josh Neufville Najran Ativo 111 / 119 40% 1 04.02.2028 -
Jordan Williams Harrogate Town Ativo 124 / 117 40% 1 03.02.2028 -
Patrick Yazbek Nashville SC Ativo 135 / 129 40% 1 03.02.2028 -
Nacho Martín Gijón Ativo 120 / 131 40% 1 03.02.2028 -
David Sotelo Persib Ativo 118 / 101 40% 3 01.02.2028 -
Enzo Silcan Almagro Ativo 109 / 104 40% 4 01.02.2028 -
Arsen Adamov Akhmat Grozny Ativo 117 / 132 40% 1 01.02.2028 -
Sasha Marcich Lanús Ativo 119 / 120 40% 3 31.01.2028 -
Matías Fernández Independiente Rivadavia Ativo 125 / 127 40% 1 31.01.2028 -
Ulises Sánchez Gimnasia y Esgrima Ativo 123 / 136 40% 1 31.01.2028 -
Facundo Ardiles Estudiantes Ativo 115 / 101 40% 3 30.01.2028 -
Braian Aranda Agropecuario Argentino Ativo 104 / 125 40% 2 30.01.2028 -
Thomas Ortega Quilmes Ativo 119 / 121 40% 2 30.01.2028 -
Iván Tapia Barracas Central Ativo 132 / 111 40% 1 29.01.2028 -
Alexis Steimbach Gimnasia La Plata Ativo 126 / 129 40% 1 29.01.2028 -
Fernando Martínez Central Córdoba SdE Ativo 114 / 132 40% 2 28.01.2028 -
Ezequiel Cannavo Defensa y Justicia Ativo 122 / 138 40% 1 28.01.2028 -
Facundo Mater Barracas Central Ativo 117 / 117 40% 1 27.01.2028 -
Tomás Silva Platense Ativo 128 / 135 40% 1 27.01.2028 -
Juan Yangali San Telmo Ativo 114 / 116 40% 1 26.01.2028 -
Enzo Martínez Gimnasia La Plata Ativo 119 / 133 40% 1 26.01.2028 -
Franco Hanashiro Colegiales Ativo 107 / 107 40% 1 26.01.2028 -
Francisco Álvarez Argentinos Juniors Ativo 138 / 116 40% 2 25.01.2028 -
Georgie Gent Barnsley Ativo 112 / 121 40% 1 25.01.2028 -
Erik de los Santos Racing Ativo 107 / 119 40% 1 23.01.2028 -
Enzo Roldán Unión de Santa Fe Ativo 110 / 110 40% 1 23.01.2028 -
Agustín Benítez Defensores Ativo 118 / 113 40% 1 23.01.2028 -
Santiago Núñez Estudiantes Ativo 134 / 126 40% 1 21.01.2028 -
Gonzalo Abrego Godoy Cruz Ativo 123 / 125 40% 2 20.01.2028 -
Matías Machado Racing Ativo 123 / 116 40% 1 20.01.2028 -
Germán Berterame Vélez Ativo 132 / 122 40% 39 18.01.2028 -
M'Bala Nzola Cagliari Ativo 128 / 129 40% 12 18.01.2028 -
Leandro Lozano Boca Juniors Ativo 118 / 134 40% 1 14.01.2028 -
Fernando Bersano Madryn Ativo 120 / 118 40% 1 14.01.2028 -
Teruki Hara Nagoya Grampus Ativo 113 / 133 40% 2 13.01.2028 -
Martín García Atlanta Ativo 108 / 117 40% 1 13.01.2028 -
César Ibáñez Huracán Ativo 135 / 115 40% 1 11.01.2028 -
Daniel Herrera San Lorenzo Ativo 123 / 136 40% 1 11.01.2028 -
Kamran Ramazanov Inter Perdido 124 / 118 69% 1 03.01.2028 -
Lautaro Amadé Defensa y Justicia Perdido 122 / 126 40% 6 01.01.2028 -
Rüstəm Əhmədzadə Sumgayit Relatório pronto 119 / 109 69% 1 01.01.2028 -
Egil Selvik Watford Ativo 133 / 128 40% 1 01.01.2028 -
Max O'Leary West Bromwich Albion Ativo 131 / 130 40% 1 01.01.2028 -
Jhonatan Candia Barracas Central Ativo 115 / 115 40% 2 30.12.2027 -
Duvan Rangel La Equidad Ativo 138 / 133 40% 2 30.12.2027 -
Nicolás Fernández Sassuolo Ativo 132 / 123 40% 20 30.12.2027 -
Mattia Bortolussi Padova Ativo 133 / 119 40% 14 30.12.2027 -
Tomás O'Connor Gimnasia y Esgrima Ativo 125 / 128 40% 1 30.12.2027 -
Lautaro Díaz Cruzeiro Ativo 130 / 130 40% 3 28.12.2027 -
Jerónimo Pourtau Talleres Ativo 117 / 121 40% 2 19.12.2027 -
Balázs Tóth Blackburn Rovers Ativo 137 / 131 40% 1 19.12.2027 -
Franco Malagueño Colegiales Ativo 101 / 123 40% 1 16.12.2027 -
Matías Borgogno San Martín SJ Perdido 134 / 135 40% 1 14.12.2027 -
Gaëtan Poussin Red Star Ativo 128 / 136 40% 1 14.12.2027 -
Juan Brunetta FC Copenhagen Ativo 136 / 130 40% 13 13.12.2027 -
Evgeny Latyshonok Nizhniy Novgorod Ativo 140 / 124 40% 2 12.12.2027 -
Iván Arboleda Sarmiento Ativo 133 / 110 40% 2 12.12.2027 -
Lucas Acosta Aldosivi Ativo 113 / 110 40% 5 11.12.2027 -
Abduvohid Ne'matov Nasaf Ativo 137 / 132 40% 4 07.12.2027 -
Gastón Togni Defensa y Justicia Ativo 123 / 139 40% 2 07.12.2027 -
Vladimir Nazarov Pakhtakor Ativo 127 / 130 40% 1 07.12.2027 -
Denzel Jubitana Neftchi Ativo 129 / 110 40% 1 07.12.2027 -
Emanuel Coronel Rosario Central Ativo 118 / 128 40% 1 06.12.2027 -
César Pérez Defensa y Justicia Ativo 118 / 117 40% 1 06.12.2027 -
Michele Cerofolini Bari Ativo 128 / 137 40% 1 30.11.2027 -
Tomás Marchiori Vélez Ativo 138 / 131 40% 3 28.11.2027 -
Didier Mercier Chamois Niortais Ativo 121 / 134 40% 1 28.11.2027 -
Edwuin Cetré Estudiantes Ativo 121 / 123 40% 1 23.11.2027 -
Asier Villalibre Valencia Ativo 123 / 126 40% 1 21.11.2027 -
Sol Brynn Krasnodar Ativo 122 / 138 40% 6 19.11.2027 -
Renzo Tesuri Atlético Tucumán Ativo 121 / 136 40% 1 16.11.2027 -
Tomás Conechny Racing Club Ativo 121 / 140 40% 1 16.11.2027 -
Cristopher Fiermarin Defensa y Justicia Ativo 128 / 114 40% 4 10.11.2027 -
José Devecchi San Lorenzo Ativo 118 / 122 40% 3 09.11.2027 -
Franco Petroli Estudiantes Ativo 119 / 117 40% 3 09.11.2027 -
Matías Zaracho Racing Club Ativo 120 / 137 40% 1 06.11.2027 -
Tomáš Bobček Frosinone Ativo 122 / 126 40% 4 30.10.2027 -
Guillermo Enrique Huracán Ativo 117 / 108 40% 2 27.10.2027 -
Alexander Díaz Deportivo Riestra Ativo 127 / 129 40% 1 27.10.2027 -
Stefano Moreyra Independiente Rivadavia Ativo 125 / 110 40% 1 27.10.2027 -
Facundo Farías Estudiantes Ativo 121 / 121 40% 5 24.10.2027 -
Matías Tagliamonte Racing Club Ativo 111 / 113 40% 2 23.10.2027 -
Jonathan Klinsmann Cesena Ativo 134 / 135 40% 2 23.10.2027 -
Lucas Chaves Argentinos Juniors Ativo 129 / 126 40% 1 23.10.2027 -
Emmanuel Gómez Riga Alvarado Ativo 128 / 111 40% 2 17.10.2027 -
Wladimiro Falcone Lecce Ativo 148 / 143 40% 1 17.10.2027 -
Iván Villar Villarreal Ativo 130 / 136 40% 1 16.10.2027 -
Alan Sosa Tigre Ativo 119 / 123 40% 1 16.10.2027 -
Mateusz Bogusz Houston Dynamo Ativo 117 / 144 40% 2 08.10.2027 -
Maksim Samorodov Akhmat Grozny Ativo 117 / 111 40% 3 06.10.2027 -
Luciano Herrera Newell's Old Boys Ativo 118 / 138 40% 1 04.10.2027 -
Yorbe Vertessen Red Bull Salzburg Ativo 131 / 129 40% 9 02.10.2027 -
Daniel Sappa San Miguel Ativo 119 / 112 40% 1 02.10.2027 -
Gianmarco Vannucchi Benevento Ativo 120 / 127 40% 1 28.09.2027 -
Ignacio Chicco Aldosivi Ativo 112 / 132 40% 1 28.09.2027 -
Andrea Fulignati Cremonese Ativo 133 / 124 40% 1 28.09.2027 -
Afimico Pululu Rosario Central Ativo 119 / 115 40% 3 25.09.2027 -
Adam Buksa Udinese Ativo 123 / 120 40% 4 25.09.2027 -
Hojiakbar Alijonov Pakhtakor Ativo 127 / 132 40% 1 23.09.2027 -
Matías Canedo Rampla Juniors Ativo 89 / 86 40% 2 21.09.2027 -
Zahir Ibarra Defensa y Justicia Ativo 92 / 105 40% 1 21.09.2027 -
Ángel Aguayo Sol de America Ativo 93 / 113 40% 1 21.09.2027 -
Marek Rodák Malmo FF Ativo 137 / 129 40% 1 20.09.2027 -
Lucas Souto Defensa y Justicia Ativo 128 / 135 40% 1 12.09.2027 -
Gustavo Del Prete San Lorenzo Ativo 120 / 119 40% 1 12.09.2027 -
Maxim Borisko CSKA Moscow Ativo 124 / 122 40% 2 07.09.2027 -
Juan Bisanz Huracán Ativo 136 / 131 40% 1 07.09.2027 -
Antony Alonso Deportivo Riestra Ativo 118 / 121 40% 1 07.09.2027 -
Diego Vargas San Marcos de Arica Ativo 82 / 111 40% 1 05.09.2027 -
Alexis Ríos Leones Ativo 94 / 77 40% 1 05.09.2027 -
Ulises Giménez River Plate Ativo 108 / 130 40% 2 30.08.2027 -
Ľubomír Tupta Neftchi Ativo 122 / 115 69% 1 30.08.2027 Aprovar
Elkin Rivero Atletico Nacional Ativo 95 / 123 40% 1 30.08.2027 -
Samuel Posada Leones Ativo 77 / 87 40% 1 30.08.2027 -
Lucas Camejo River Plate Ativo 79 / 90 40% 2 29.08.2027 -
Julián Bazán Philadelphia Union Ativo 101 / 128 40% 1 29.08.2027 -
Lucas Silva River Plate Ativo 95 / 110 40% 2 28.08.2027 -
Daniel Gomez Valledupar Ativo 90 / 92 40% 2 28.08.2027 -
Keimer Sandoval Deportivo Cali Ativo 111 / 119 40% 1 28.08.2027 -
Teo Rodríguez Pagano River Plate Ativo 111 / 134 40% 1 26.08.2027 -
Maximiliano Salas River Plate Ativo 119 / 128 40% 1 22.08.2027 -
Emiliano Bértoli Patronato Ativo 99 / 93 40% 2 21.08.2027 -
Ollie Watkins Estudiantes Ativo 144 / 137 40% 4 21.08.2027 -
Jofrank Istifanus Nasarawa United Ativo 94 / 98 40% 2 21.08.2027 -
Sebastian Aceves Atletico Goianiense Ativo 88 / 88 40% 1 18.08.2027 -
Erik Botheim Talleres Ativo 118 / 113 40% 4 16.08.2027 -
Dániel Gazdag Wolverhampton Ativo 124 / 135 40% 10 16.08.2027 -
Uriel Antuna Zaragoza Ativo 132 / 135 40% 1 16.08.2027 -
Alejandro Almaraz Nueva Chicago Ativo 112 / 129 40% 1 15.08.2027 -
José Correa Deportivo Tachira Ativo 95 / 98 40% 1 15.08.2027 -
Sebastián Driussi River Plate Ativo 118 / 116 40% 10 12.08.2027 -
Adrián Spörle Belgrano Ativo 118 / 123 40% 1 09.08.2027 -
Gonzalo Ríos Independiente Rivadavia Ativo 114 / 107 40% 1 06.08.2027 -
Francisco González Metilli Belgrano Ativo 135 / 135 40% 1 06.08.2027 -
Tomás Adoryan Banfield Ativo 110 / 132 40% 1 04.08.2027 -
Juan Infante Atlético Tucumán Ativo 124 / 118 40% 1 04.08.2027 -
Iñaki Larthirigoyen San Telmo Ativo 129 / 115 40% 1 03.08.2027 -
Facundo Altamira Godoy Cruz Ativo 117 / 130 40% 1 03.08.2027 -
Mateo Bajamich Atlético Tucumán Ativo 114 / 119 40% 1 31.07.2027 -
Bruno Barticciotto Talleres Ativo 119 / 141 40% 5 28.07.2027 -
Hugo Al Wasl Ativo 125 / 122 40% 1 26.07.2027 -
Alejo Dramisino Atlanta Ativo 119 / 122 40% 1 26.07.2027 -
Milton Giménez Boca Juniors Ativo 118 / 128 40% 2 24.07.2027 -
Charlie Gray Grimsby Town Ativo 101 / 90 40% 4 21.07.2027 -
Rayhan Momade Sporting CP Ativo 99 / 106 40% 2 21.07.2027 -
Leandro Martins Benfica Ativo 96 / 92 40% 5 20.07.2027 -
Kai Andrews Coventry City Ativo 113 / 116 40% 2 20.07.2027 -
Álvaro Navoni Tigre Ativo 91 / 92 40% 1 20.07.2027 -
Álvaro Fernández Mallorca Ativo 136 / 141 40% 1 18.07.2027 -
Ilja Pomazun Spartak Moscow Ativo 131 / 120 40% 1 16.07.2027 -
Evgeny Staver Rubin Ativo 126 / 109 40% 8 13.07.2027 -
Lucas Mbamba Westerlo Ativo 92 / 93 40% 5 13.07.2027 -
Darryl Bakola Padova Ativo 107 / 132 40% 4 13.07.2027 -
Miguel Vargas Universitario Ativo 107 / 114 40% 1 13.07.2027 -
Christián Herc Gabala Ativo 119 / 107 69% 1 12.07.2027 Aprovar
Santiago Longo Belgrano Ativo 134 / 129 40% 2 11.07.2027 -
Miguel Loureiro Deportivo La Coruña Ativo 127 / 118 40% 1 11.07.2027 -
Alexandr Koryakin Krasnodar Ativo 122 / 105 40% 2 09.07.2027 -
Nicolás Sumavil Platense Ativo 110 / 103 40% 3 09.07.2027 -
Luis Chávez Dinamo Moscow Ativo 136 / 120 40% 3 04.07.2027 -
Milson Al Jazira Ativo 129 / 126 40% 1 04.07.2027 -
Santiago Ascacíbar Boca Juniors Ativo 132 / 135 40% 1 04.07.2027 -
Darnell Furlong Ipswich Town Ativo 122 / 120 40% 2 03.07.2027 -
Vitinha Genoa Ativo 138 / 136 40% 1 02.07.2027 -
Valentin Rosier Osasuna Ativo 126 / 122 40% 1 02.07.2027 -
Emiliano González Almagro Ativo 112 / 112 40% 1 01.07.2027 -
Matías Galarza Central Córdoba SdE Ativo 135 / 131 40% 1 01.07.2027 -
Igor Leschuk Dinamo Moscow Ativo 125 / 131 40% 1 27.06.2027 -
Tomás Durso Atlético Tucumán Ativo 134 / 137 40% 1 27.06.2027 -
Weibmar Asprilla Independiente Medellin Ativo 114 / 110 40% 1 26.06.2027 -
Jakub Kałuziński Basaksehir Ativo 120 / 121 40% 1 26.06.2027 -
Santiago González Tigre Ativo 128 / 139 40% 1 26.06.2027 -
Alex Luna Instituto Ativo 128 / 130 40% 1 25.06.2027 -
Eric Meza Estudiantes Ativo 119 / 137 40% 1 25.06.2027 -
Douglas Augusto Krasnodar Ativo 140 / 134 40% 2 22.06.2027 -
Nicolás Tripichio San Lorenzo Ativo 133 / 125 40% 1 21.06.2027 -
Daniil Fomin Dinamo Moscow Ativo 132 / 122 40% 1 21.06.2027 -
Anton Miranchuk Dinamo Moscow Ativo 116 / 140 40% 1 19.06.2027 -
Malcom Braida Boca Juniors Ativo 125 / 137 40% 1 19.06.2027 -
Kevin Pina Krasnodar Ativo 132 / 141 40% 1 19.06.2027 -
Roberto Ramírez Godoy Cruz Ativo 128 / 106 40% 1 19.06.2027 -
Serginho Al Wasl Ativo 140 / 134 40% 1 16.06.2027 -
Bədavi Hüseynov Gabala Ativo 104 / 97 69% 1 14.06.2027 Aprovar
Eduardo Felicíssimo Sporting CP Ativo 115 / 122 40% 3 13.06.2027 -
Chibueze Oputa Rangers International Ativo 76 / 86 40% 1 13.06.2027 -
Michal Rosiak Twente Ativo 91 / 92 40% 2 10.06.2027 -
Daniel Padilla Zamora Ativo 100 / 90 40% 1 10.06.2027 -
Martim Cunha Porto Ativo 106 / 102 40% 4 09.06.2027 -
Thijs Kraaijeveld Feyenoord Ativo 108 / 127 40% 2 09.06.2027 -
Latrell Aken Groningen Ativo 105 / 121 40% 2 07.06.2027 -
Zaïd BafdilI Sporting CP Ativo 92 / 97 40% 5 05.06.2027 -
Falaye Sacko Neftchi Ativo 118 / 122 69% 1 02.06.2027 Aprovar
Issa Djibrilla Zira Ativo 107 / 121 69% 1 01.06.2027 Aprovar
Timur Kraikov Sokol Ativo 99 / 82 40% 2 28.05.2027 -
Arthur Augusto Semen Padang Ativo 106 / 93 40% 1 28.05.2027 -
Tenton Yenne Baltika Ativo 117 / 98 40% 1 28.05.2027 -
Georgy Melkadze Akhmat Grozny Ativo 105 / 119 40% 4 25.05.2027 -
Arthur Gomes Dinamo Moscow Ativo 130 / 126 40% 2 24.05.2027 -
Martin Sekulić Ural Ativo 115 / 124 40% 1 24.05.2027 -
Eddy Ozobic Inter Perdido 104 / 120 40% 2 22.05.2027 -
Jeimes Sumgayit Ativo 99 / 98 40% 5 21.05.2027 -
Santiago Silva CFR Cluj Ativo 127 / 110 40% 10 19.05.2027 -
Brian Opondo Kakamega Homeboyz Ativo 97 / 77 40% 1 19.05.2027 -
Nicolás Azambuja Cádiz Ativo 113 / 123 40% 1 19.05.2027 -
François Kamano Sochi Ativo 114 / 120 40% 2 18.05.2027 -
Amaury Morales Pumas UNAM Ativo 103 / 104 40% 1 18.05.2027 -
Timur Akmurzin Dinamo Bryansk Ativo 96 / 91 40% 6 15.05.2027 -
Ivan Sergeev Dinamo Moscow Ativo 132 / 138 40% 1 15.05.2027 -
Lucas Carrizo Plaza Colonia Ativo 101 / 112 40% 1 15.05.2027 -
Vyacheslav Grulev Nizhniy Novgorod Ativo 109 / 112 40% 1 12.05.2027 -
Bogdan Ovsyannikov Orenburg Ativo 104 / 107 40% 12 11.05.2027 -
Felipe San Juan Gimnasia y Esgrima Ativo 110 / 104 40% 1 10.05.2027 -
Joaquín Bigo Tristán Suárez Ativo 109 / 111 40% 10 08.05.2027 -
Egoitz Arana Real Sociedad Ativo 114 / 112 40% 1 07.05.2027 -
Rostislav Soldatenko Torpedo Moscow Ativo 93 / 96 40% 10 06.05.2027 -
Franco Rivasseau Patronato Ativo 109 / 113 40% 1 06.05.2027 -
Maycon Cleiton Zira Ativo 115 / 114 40% 14 03.05.2027 -
Agustín Lastra Estudiantes Ativo 99 / 94 40% 2 02.05.2027 -
Jayden Spier Willem II Ativo 101 / 111 40% 2 02.05.2027 -
Ilja Tuseev Chelyabinsk Ativo 102 / 107 40% 10 01.05.2027 -
Alejo Medina Agropecuario Argentino Ativo 107 / 90 40% 2 28.04.2027 -
Ruslan Ozobic Inter Ativo 104 / 107 40% 1 28.04.2027 -
Nikita Yanovich Tyumen Ativo 101 / 85 40% 2 26.04.2027 -
Alexandr Degtev Orenburg Ativo 117 / 99 40% 2 25.04.2027 -
Nikita Kokarev Zenit Ativo 124 / 107 40% 4 24.04.2027 -
Juan Pablo Noce All Boys Ativo 97 / 101 40% 2 24.04.2027 -
Thomas Amang Rubin Ativo 108 / 100 40% 2 21.04.2027 -
Esteban da Silva Racing Ativo 103 / 107 40% 1 21.04.2027 -
Finley McAllister Grimsby Town Ativo 84 / 87 40% 3 19.04.2027 -
João Capucho Benfica Ativo 94 / 99 40% 2 19.04.2027 -
Lorenzo Cordaro Pergolettese Ativo 105 / 97 40% 2 14.04.2027 -
Lucas Machado Defensor Sporting Ativo 92 / 88 40% 1 08.04.2027 -
Daniel Kelly Oxford United Ativo 109 / 124 40% 4 01.04.2027 -
Larson Palmeiras Ativo 98 / 95 40% 3 01.04.2027 -
Lucas Ruiz Ferro Carril Oeste Ativo 98 / 124 40% 1 30.03.2027 -
Matías Gómez Granada Ativo 112 / 125 40% 2 28.03.2027 -
Aldo Pérez Guarani Ativo 115 / 112 40% 4 26.03.2027 -
Thyago Ayala Newell's Old Boys Ativo 95 / 97 40% 3 26.03.2027 -
Emanuel Sittaro Instituto Ativo 100 / 117 40% 1 19.03.2027 -
Ólafur Kristófer Helgason Fylkir Ativo 100 / 103 40% 2 18.03.2027 -
Zane Albarus Cambridge United Ativo 95 / 90 40% 3 17.03.2027 -
Gonçalo Oliveira Benfica Ativo 111 / 107 40% 2 16.03.2027 -
Karim Coulibaly RC Strasbourg Ativo 127 / 127 40% 2 09.03.2027 -
Daniel Costa Sporting CP Ativo 83 / 95 40% 1 04.03.2027 -
Daniil Frolkin Fakel Ativo 108 / 120 40% 5 27.02.2027 -
Novak Mićović LA Galaxy Ativo 106 / 111 40% 1 27.02.2027 -
Neil Volken Zurich Ativo 90 / 100 40% 1 27.02.2027 -
Maxim Belov Dinamo Brest Ativo 100 / 98 40% 5 21.02.2027 -
Ismail Al Suwaidi Al Fujairah Ativo 123 / 137 40% 1 21.02.2027 -
Makar Vysochenko Spartak Moscow Ativo 91 / 93 40% 1 03.02.2027 -
Freddy Murillo Valencia Ativo 116 / 127 40% 1 03.02.2027 -
Michael Creek Nashville SC Ativo 87 / 106 40% 1 01.02.2027 -
Krešimir Radoš HNK Gorica Ativo 101 / 115 40% 1 31.01.2027 -
Richard Noël AS Nancy Ativo 88 / 103 40% 1 30.01.2027 -
Tiago Freitas Benfica Ativo 107 / 121 40% 2 28.01.2027 -
Vugar Garayev Inter Ativo 95 / 107 40% 5 20.01.2027 -
Richard Medvedev Khazar Ativo 87 / 95 40% 4 10.01.2027 -
Oleh Bilyk Epicentr Ativo 107 / 104 40% 6 04.01.2027 -
Ruan Renato Zira Ativo 112 / 117 65% 1 03.01.2027 Aprovar
Rodrigo Frutos Olimpia Ativo 87 / 80 40% 2 02.01.2027 -
Juan Sebastián Serrano FC Nordsjaelland Ativo 85 / 97 40% 4 31.12.2026 -
Efraín Ustariz Botev Plovdiv Ativo 96 / 94 40% 1 31.12.2026 -
Islam Imamov SKA Khabarovsk Ativo 82 / 81 40% 4 28.12.2026 -
Leonardo Marson Gubbio Ativo 104 / 102 40% 2 27.12.2026 -
Franco Herrera Viitorul Ativo 93 / 118 40% 1 22.12.2026 -
Danila Sokol BATE Ativo 91 / 86 40% 1 20.12.2026 -
Cheveyo Tsawa Club Brugge Ativo 118 / 126 40% 1 13.12.2026 -
Ivan Shilenok Zenit Ativo 97 / 91 40% 1 11.12.2026 -
Anton Andersson Falkenberg Ativo 87 / 118 40% 3 27.11.2026 -
David Sangaré Ryazan Ativo 84 / 82 40% 2 24.11.2026 -
Guilherme Pires Sporting CP Ativo 85 / 98 40% 1 22.11.2026 -
Hamza Alaa Al Ahly Ativo 110 / 108 40% 1 19.11.2026 -
Randall Rodríguez River Plate Ativo 100 / 116 40% 2 17.11.2026 -
Reece Braithwaite Inter Ativo 98 / 118 40% 1 03.11.2026 -
Frankie Westfield Philadelphia Union Ativo 111 / 98 40% 1 03.11.2026 -
David Agudelo Depor Ativo 107 / 101 40% 3 26.10.2026 -
Valente Pierani Estudiantes Ativo 114 / 110 40% 1 11.10.2026 -
Ignacio Ovando Rosario Central Ativo 115 / 121 40% 1 11.10.2026 -
Matija Mitrović Vitoria Guimaraes Ativo 113 / 111 40% 1 11.10.2026 -
Joel Godoy Sarmiento Ativo 114 / 124 40% 1 09.10.2026 -
Felipe Obradovich Ferro Carril Oeste Ativo 114 / 116 40% 1 09.10.2026 -
Adrian Gill Atlanta United FC Ativo 86 / 93 40% 1 09.10.2026 -
Joaquín Canadell Quilmes Ativo 87 / 113 40% 1 01.10.2026 -
Isak Pettersson IF Elfsborg Ativo 119 / 121 40% 1 27.09.2026 -
Mathías Bernatene Liverpool Montevideo Ativo 110 / 110 40% 1 27.09.2026 -
Bingourou Kamara Olympique de Marseille Ativo 117 / 120 40% 1 21.09.2026 -
Morrison Agyemang Charlotte Football Club Ativo 101 / 110 40% 2 08.09.2026 -
Rachid Moumini Sumgayit Ativo 106 / 109 40% 1 08.09.2026 -
Alfie Cresswell Leeds United Ativo 100 / 113 40% 1 02.09.2026 -
Marvin Kaleta Rotherham United Ativo 104 / 117 40% 2 01.09.2026 -
Jofre Torrents Ajax Ativo 110 / 122 40% 1 01.09.2026 -
Santiago Espíndola River Plate Ativo 109 / 96 40% 2 28.08.2026 -
Rhys Chadwick Leyton Orient Ativo 100 / 104 40% 1 28.08.2026 -
Thiago Villalba Vélez Ativo 93 / 116 40% 1 26.08.2026 -
Law McCabe Middlesbrough Ativo 102 / 108 40% 1 24.08.2026 -
Ramiro Buratti River Plate Ativo 91 / 104 40% 1 19.08.2026 -
Josh Laqeretabua Charlton Athletic Ativo 94 / 102 40% 1 17.08.2026 -
Roi Kehat Sumgayit Ativo 116 / 108 65% 1 10.08.2026 Aprovar
Santiago Silveira Argentinos Juniors Ativo 77 / 108 40% 1 10.08.2026 -
Gonzalo Escudero Racing Club Ativo 116 / 126 40% 1 10.08.2026 -
Edwar López Deportes Tolima Ativo 105 / 107 40% 1 01.08.2026 -